Time,TemperatureF,DewpointF,PressureIn,WindDirection,WindDirectionDegrees,WindSpeedMPH,WindSpeedGustMPH,Humidity,HourlyPrecipIn,Conditions,Clouds,dailyrainin,SolarRadiationWatts/m^2,SoftwareType,DateUTC
2013-09-23 00:02:00,42.0,40.0,-100.00,East,97,3.0,7.0,93,0.00,,,0.87,0.000000,,2013-09-23 06:02:00,
2013-09-23 00:13:00,42.0,40.0,-100.00,East,97,3.0,7.0,93,0.00,,,0.87,0.000000,,2013-09-23 06:13:00,
2013-09-23 00:22:00,42.0,40.0,-100.00,East,97,3.0,7.0,93,0.00,,,0.87,0.000000,,2013-09-23 06:22:00,
2013-09-23 00:32:00,42.0,40.0,-100.00,East,97,3.0,7.0,93,0.00,,,0.87,0.000000,,2013-09-23 06:32:00,
2013-09-23 00:52:00,42.0,40.0,-100.00,NNE,14,2.0,7.0,93,0.00,,,0.87,0.000000,,2013-09-23 06:52:00,
2013-09-23 01:01:00,42.0,40.0,-100.00,NNE,14,2.0,7.0,93,0.00,,,0.87,0.000000,,2013-09-23 07:01:00,
2013-09-23 01:12:00,42.0,40.0,-100.00,NNE,14,2.0,7.0,93,0.00,,,0.87,0.000000,,2013-09-23 07:12:00,
2013-09-23 01:22:00,42.0,40.0,-100.00,NNE,14,2.0,7.0,93,0.00,,,0.87,0.000000,,2013-09-23 07:22:00,
2013-09-23 01:32:00,42.0,40.0,-100.00,NNE,14,2.0,7.0,93,0.00,,,0.87,0.000000,,2013-09-23 07:32:00,
2013-09-23 01:52:00,40.0,39.0,-100.00,SSE,158,4.0,6.0,96,0.01,,,0.88,0.000000,,2013-09-23 07:52:00,
2013-09-23 02:02:00,40.0,39.0,-100.00,SSE,158,4.0,6.0,96,0.01,,,0.88,0.000000,,2013-09-23 08:02:00,
2013-09-23 02:11:00,40.0,39.0,-100.00,SSE,158,4.0,6.0,96,0.01,,,0.88,0.000000,,2013-09-23 08:11:00,
2013-09-23 02:23:00,40.0,39.0,-100.00,SSE,158,4.0,6.0,96,0.01,,,0.88,0.000000,,2013-09-23 08:23:00,
2013-09-23 02:32:00,40.0,39.0,-100.00,SSE,158,4.0,6.0,96,0.01,,,0.88,0.000000,,2013-09-23 08:32:00,
2013-09-23 02:52:00,42.0,40.0,-100.00,SSE,165,5.0,8.0,92,0.00,,,0.88,0.000000,,2013-09-23 08:52:00,
2013-09-23 03:02:00,42.0,40.0,-100.00,SSE,165,5.0,8.0,92,0.00,,,0.88,0.000000,,2013-09-23 09:02:00,
2013-09-23 03:11:00,42.0,40.0,-100.00,SSE,165,5.0,8.0,92,0.00,,,0.88,0.000000,,2013-09-23 09:11:00,
2013-09-23 03:21:00,42.0,40.0,-100.00,SSE,165,5.0,8.0,92,0.00,,,0.88,0.000000,,2013-09-23 09:21:00,
2013-09-23 03:33:00,42.0,40.0,-100.00,SSE,165,5.0,8.0,92,0.00,,,0.88,0.000000,,2013-09-23 09:33:00,
2013-09-23 04:13:00,40.0,36.0,-100.00,NNW,340,3.0,8.0,86,0.00,,,0.88,0.000000,,2013-09-23 10:13:00,
2013-09-23 04:23:00,40.0,36.0,-100.00,NNW,340,3.0,8.0,86,0.00,,,0.88,0.000000,,2013-09-23 10:23:00,
2013-09-23 04:33:00,40.0,36.0,-100.00,NNW,340,3.0,8.0,86,0.00,,,0.88,0.000000,,2013-09-23 10:33:00,
2013-09-23 04:53:00,42.0,35.0,-100.00,SW,220,7.0,11.0,75,0.00,,,0.88,0.000000,,2013-09-23 10:53:00,
2013-09-23 05:03:00,42.0,35.0,-100.00,SW,220,7.0,11.0,75,0.00,,,0.88,0.000000,,2013-09-23 11:03:00,
2013-09-23 05:12:00,42.0,35.0,-100.00,SW,220,7.0,11.0,75,0.00,,,0.88,0.000000,,2013-09-23 11:12:00,
2013-09-23 05:22:00,42.0,35.0,-100.00,SW,220,7.0,11.0,75,0.00,,,0.88,0.000000,,2013-09-23 11:22:00,
2013-09-23 05:33:00,42.0,35.0,-100.00,SW,220,7.0,11.0,75,0.00,,,0.88,0.000000,,2013-09-23 11:33:00,
2013-09-23 05:52:00,41.0,33.0,-100.00,NNW,338,4.0,12.0,72,0.00,,,0.88,0.000000,,2013-09-23 11:52:00,
2013-09-23 06:02:00,41.0,33.0,-100.00,NNW,338,4.0,12.0,72,0.00,,,0.88,0.000000,,2013-09-23 12:02:00,
2013-09-23 06:11:00,41.0,33.0,-100.00,NNW,338,4.0,12.0,72,0.00,,,0.88,0.000000,,2013-09-23 12:11:00,
2013-09-23 06:22:00,41.0,33.0,-100.00,NNW,338,4.0,12.0,72,0.00,,,0.88,0.000000,,2013-09-23 12:22:00,
2013-09-23 06:32:00,41.0,33.0,-100.00,NNW,338,4.0,12.0,72,0.00,,,0.88,0.000000,,2013-09-23 12:32:00,
2013-09-23 06:52:00,42.0,36.0,-100.00,SSW,210,5.0,11.0,78,0.00,,,0.88,0.000000,,2013-09-23 12:52:00,
2013-09-23 07:02:00,42.0,36.0,-100.00,SSW,210,5.0,11.0,78,0.00,,,0.88,0.000000,,2013-09-23 13:02:00,
2013-09-23 07:11:00,42.0,36.0,-100.00,SSW,210,5.0,11.0,78,0.00,,,0.88,0.000000,,2013-09-23 13:11:00,
2013-09-23 07:22:00,42.0,36.0,-100.00,SSW,210,5.0,11.0,78,0.00,,,0.88,0.000000,,2013-09-23 13:22:00,
2013-09-23 07:32:00,42.0,36.0,-100.00,SSW,210,5.0,11.0,78,0.00,,,0.88,0.000000,,2013-09-23 13:32:00,
2013-09-23 07:52:00,44.0,36.0,-100.00,South,185,7.0,11.0,74,0.00,,,0.88,6.000000,,2013-09-23 13:52:00,
2013-09-23 08:01:00,44.0,36.0,-100.00,South,185,7.0,11.0,74,0.00,,,0.88,6.000000,,2013-09-23 14:01:00,
2013-09-23 08:11:00,44.0,36.0,-100.00,South,185,7.0,11.0,74,0.00,,,0.88,6.000000,,2013-09-23 14:11:00,
2013-09-23 08:22:00,44.0,36.0,-100.00,South,185,7.0,11.0,74,0.00,,,0.88,6.000000,,2013-09-23 14:22:00,
2013-09-23 08:32:00,44.0,36.0,-100.00,South,185,7.0,11.0,74,0.00,,,0.88,6.000000,,2013-09-23 14:32:00,
2013-09-23 08:52:00,49.0,38.0,-100.00,SW,221,6.0,10.0,65,0.00,,,0.88,129.000000,,2013-09-23 14:52:00,
2013-09-23 09:02:00,49.0,38.0,-100.00,SW,221,6.0,10.0,65,0.00,,,0.88,129.000000,,2013-09-23 15:02:00,
2013-09-23 09:12:00,49.0,38.0,-100.00,SW,221,6.0,10.0,65,0.00,,,0.88,129.000000,,2013-09-23 15:12:00,
2013-09-23 09:21:00,49.0,38.0,-100.00,SW,221,6.0,10.0,65,0.00,,,0.88,129.000000,,2013-09-23 15:21:00,
2013-09-23 09:33:00,49.0,38.0,-100.00,SW,221,6.0,10.0,65,0.00,,,0.88,129.000000,,2013-09-23 15:33:00,
2013-09-23 09:54:00,48.0,36.0,-100.00,SW,223,5.0,9.0,63,0.00,,,-99.99,136.000000,,2013-09-23 15:54:00,
2013-09-23 10:04:00,48.0,36.0,-100.00,SW,223,5.0,9.0,63,0.00,,,-99.99,136.000000,,2013-09-23 16:04:00,
2013-09-23 10:12:00,48.0,36.0,-100.00,SW,223,5.0,9.0,63,0.00,,,-99.99,136.000000,,2013-09-23 16:12:00,
2013-09-23 10:24:00,48.0,36.0,-100.00,SW,223,5.0,9.0,63,0.00,,,-99.99,136.000000,,2013-09-23 16:24:00,
2013-09-23 10:33:00,48.0,36.0,-100.00,SW,223,5.0,9.0,63,0.00,,,-99.99,136.000000,,2013-09-23 16:33:00,
2013-09-23 10:34:00,55.0,38.0,-100.00,SW,225,4.0,10.0,53,0.00,,,-99.99,421.000000,,2013-09-23 16:34:00,
2013-09-23 10:53:00,55.0,38.0,-100.00,SW,225,4.0,10.0,53,0.00,,,-99.99,421.000000,,2013-09-23 16:53:00,
2013-09-23 11:03:00,55.0,38.0,-100.00,SW,225,4.0,10.0,53,0.00,,,-99.99,421.000000,,2013-09-23 17:03:00,
2013-09-23 11:12:00,55.0,38.0,-100.00,SW,225,4.0,10.0,53,0.00,,,-99.99,421.000000,,2013-09-23 17:12:00,
2013-09-23 11:24:00,55.0,38.0,-100.00,SW,225,4.0,10.0,53,0.00,,,-99.99,421.000000,,2013-09-23 17:24:00,
2013-09-23 11:52:00,58.0,39.0,-100.00,WSW,239,7.0,13.0,50,0.00,,,0.88,727.000000,,2013-09-23 17:52:00,
2013-09-23 12:02:00,58.0,39.0,-100.00,WSW,239,7.0,13.0,50,0.00,,,0.88,727.000000,,2013-09-23 18:02:00,
2013-09-23 12:12:00,58.0,39.0,-100.00,WSW,239,7.0,13.0,50,0.00,,,0.88,727.000000,,2013-09-23 18:12:00,
2013-09-23 12:22:00,58.0,39.0,-100.00,WSW,239,7.0,13.0,50,0.00,,,0.88,727.000000,,2013-09-23 18:22:00,
2013-09-23 12:33:00,58.0,39.0,-100.00,WSW,239,7.0,13.0,50,0.00,,,0.88,727.000000,,2013-09-23 18:33:00,
2013-09-23 12:52:00,59.0,39.0,-100.00,SW,228,9.0,16.0,48,0.00,,,0.88,706.000000,,2013-09-23 18:52:00,
2013-09-23 13:02:00,59.0,39.0,-100.00,SW,228,9.0,16.0,48,0.00,,,0.88,706.000000,,2013-09-23 19:02:00,
2013-09-23 13:12:00,59.0,39.0,-100.00,SW,228,9.0,16.0,48,0.00,,,0.88,706.000000,,2013-09-23 19:12:00,
2013-09-23 13:22:00,59.0,39.0,-100.00,SW,228,9.0,16.0,48,0.00,,,0.88,706.000000,,2013-09-23 19:22:00,
2013-09-23 13:33:00,59.0,39.0,-100.00,SW,228,9.0,16.0,48,0.00,,,0.88,706.000000,,2013-09-23 19:33:00,
2013-09-23 13:53:00,62.0,39.0,-100.00,WSW,237,8.0,17.0,42,0.00,,,0.88,795.000000,,2013-09-23 19:53:00,
2013-09-23 14:03:00,62.0,39.0,-100.00,WSW,237,8.0,17.0,42,0.00,,,0.88,795.000000,,2013-09-23 20:03:00,
2013-09-23 14:12:00,62.0,39.0,-100.00,WSW,237,8.0,17.0,42,0.00,,,0.88,795.000000,,2013-09-23 20:12:00,
2013-09-23 14:22:00,62.0,39.0,-100.00,WSW,237,8.0,17.0,42,0.00,,,0.88,795.000000,,2013-09-23 20:22:00,
2013-09-23 14:32:00,62.0,39.0,-100.00,WSW,237,8.0,17.0,42,0.00,,,0.88,795.000000,,2013-09-23 20:32:00,
2013-09-23 14:34:00,64.0,39.0,-100.00,WSW,252,7.0,17.0,39,0.00,,,0.88,621.000000,,2013-09-23 20:34:00,
2013-09-23 14:52:00,64.0,39.0,-100.00,WSW,252,7.0,17.0,39,0.00,,,0.88,621.000000,,2013-09-23 20:52:00,
2013-09-23 15:02:00,64.0,39.0,-100.00,WSW,252,7.0,17.0,39,0.00,,,0.88,621.000000,,2013-09-23 21:02:00,
2013-09-23 15:11:00,64.0,39.0,-100.00,WSW,252,7.0,17.0,39,0.00,,,0.88,621.000000,,2013-09-23 21:11:00,
2013-09-23 15:23:00,64.0,39.0,-100.00,WSW,252,7.0,17.0,39,0.00,,,0.88,621.000000,,2013-09-23 21:23:00,
2013-09-23 15:54:00,65.0,35.0,-100.00,SW,214,8.0,15.0,33,0.00,,,0.88,678.000000,,2013-09-23 21:54:00,
2013-09-23 16:04:00,65.0,35.0,-100.00,SW,214,8.0,15.0,33,0.00,,,0.88,678.000000,,2013-09-23 22:04:00,
2013-09-23 16:13:00,65.0,35.0,-100.00,SW,214,8.0,15.0,33,0.00,,,0.88,678.000000,,2013-09-23 22:13:00,
2013-09-23 16:24:00,65.0,35.0,-100.00,SW,214,8.0,15.0,33,0.00,,,0.88,678.000000,,2013-09-23 22:24:00,
2013-09-23 16:33:00,65.0,35.0,-100.00,SW,214,8.0,15.0,33,0.00,,,0.88,678.000000,,2013-09-23 22:33:00,
2013-09-23 16:34:00,68.0,37.0,-100.00,West,278,6.0,15.0,32,0.00,,,0.88,554.000000,,2013-09-23 22:34:00,
2013-09-23 16:54:00,68.0,37.0,-100.00,West,278,6.0,15.0,32,0.00,,,0.88,554.000000,,2013-09-23 22:54:00,
2013-09-23 17:02:00,68.0,37.0,-100.00,West,278,6.0,15.0,32,0.00,,,0.88,554.000000,,2013-09-23 23:02:00,
2013-09-23 17:12:00,68.0,37.0,-100.00,West,278,6.0,15.0,32,0.00,,,0.88,554.000000,,2013-09-23 23:12:00,
2013-09-23 17:22:00,68.0,37.0,-100.00,West,278,6.0,15.0,32,0.00,,,0.88,554.000000,,2013-09-23 23:22:00,
2013-09-23 17:54:00,65.0,35.0,-100.00,West,276,8.0,16.0,33,0.00,,,0.88,376.000000,,2013-09-23 23:54:00,
2013-09-23 18:01:00,65.0,35.0,-100.00,West,276,8.0,16.0,33,0.00,,,0.88,376.000000,,2013-09-24 00:01:00,
2013-09-23 18:12:00,65.0,35.0,-100.00,West,276,8.0,16.0,33,0.00,,,0.88,376.000000,,2013-09-24 00:12:00,
2013-09-23 18:22:00,65.0,35.0,-100.00,West,276,8.0,16.0,33,0.00,,,0.88,376.000000,,2013-09-24 00:22:00,
2013-09-23 18:32:00,65.0,35.0,-100.00,West,276,8.0,16.0,33,0.00,,,0.88,376.000000,,2013-09-24 00:32:00,
2013-09-23 18:52:00,60.0,32.0,-100.00,NW,319,7.0,11.0,35,0.00,,,0.80,34.000000,,2013-09-24 00:52:00,
2013-09-23 19:02:00,60.0,32.0,-100.00,NW,319,7.0,11.0,35,0.00,,,0.80,34.000000,,2013-09-24 01:02:00,
2013-09-23 19:12:00,60.0,32.0,-100.00,NW,319,7.0,11.0,35,0.00,,,0.80,34.000000,,2013-09-24 01:12:00,
2013-09-23 19:22:00,60.0,32.0,-100.00,NW,319,7.0,11.0,35,0.00,,,0.80,34.000000,,2013-09-24 01:22:00,
2013-09-23 19:32:00,60.0,32.0,-100.00,NW,319,7.0,11.0,35,0.00,,,0.80,34.000000,,2013-09-24 01:32:00,
2013-09-23 19:52:00,54.0,35.0,-100.00,NNE,13,3.0,7.0,48,0.00,,,0.57,6.000000,,2013-09-24 01:52:00,
2013-09-23 20:02:00,54.0,35.0,-100.00,NNE,13,3.0,7.0,48,0.00,,,0.57,6.000000,,2013-09-24 02:02:00,
2013-09-23 20:12:00,54.0,35.0,-100.00,NNE,13,3.0,7.0,48,0.00,,,0.57,6.000000,,2013-09-24 02:12:00,
2013-09-23 20:22:00,54.0,35.0,-100.00,NNE,13,3.0,7.0,48,0.00,,,0.57,6.000000,,2013-09-24 02:22:00,
2013-09-23 20:32:00,54.0,35.0,-100.00,NNE,13,3.0,7.0,48,0.00,,,0.57,6.000000,,2013-09-24 02:32:00,
2013-09-23 20:34:00,51.0,37.0,-100.00,SE,146,4.0,11.0,58,0.00,,,0.35,0.000000,,2013-09-24 02:34:00,
2013-09-23 20:52:00,51.0,37.0,-100.00,SE,146,4.0,11.0,58,0.00,,,0.35,0.000000,,2013-09-24 02:52:00,
2013-09-23 21:03:00,51.0,37.0,-100.00,SE,146,4.0,11.0,58,0.00,,,0.35,0.000000,,2013-09-24 03:03:00,
2013-09-23 21:12:00,51.0,37.0,-100.00,SE,146,4.0,11.0,58,0.00,,,0.35,0.000000,,2013-09-24 03:12:00,
2013-09-23 21:22:00,51.0,37.0,-100.00,SE,146,4.0,11.0,58,0.00,,,0.35,0.000000,,2013-09-24 03:22:00,
2013-09-23 21:55:00,48.0,38.0,-100.00,SSW,193,2.0,7.0,67,0.00,,,0.11,0.000000,,2013-09-24 03:55:00,
2013-09-23 22:04:00,48.0,38.0,-100.00,SSW,193,2.0,7.0,67,0.00,,,0.11,0.000000,,2013-09-24 04:04:00,
2013-09-23 22:14:00,48.0,38.0,-100.00,SSW,193,2.0,7.0,67,0.00,,,0.11,0.000000,,2013-09-24 04:14:00,
2013-09-23 22:24:00,48.0,38.0,-100.00,SSW,193,2.0,7.0,67,0.00,,,0.11,0.000000,,2013-09-24 04:24:00,
2013-09-23 22:33:00,48.0,38.0,-100.00,SSW,193,2.0,7.0,67,0.00,,,0.11,0.000000,,2013-09-24 04:33:00,
2013-09-23 22:34:00,44.0,38.0,-100.00,NE,47,2.0,5.0,80,0.00,,,0.01,0.000000,,2013-09-24 04:34:00,
2013-09-23 22:54:00,44.0,38.0,-100.00,NE,47,2.0,5.0,80,0.00,,,0.01,0.000000,,2013-09-24 04:54:00,
2013-09-23 23:03:00,44.0,38.0,-100.00,NE,47,2.0,5.0,80,0.00,,,0.01,0.000000,,2013-09-24 05:03:00,
2013-09-23 23:13:00,44.0,38.0,-100.00,NE,47,2.0,5.0,80,0.00,,,0.01,0.000000,,2013-09-24 05:13:00,
2013-09-23 23:23:00,44.0,38.0,-100.00,NE,47,2.0,5.0,80,0.00,,,0.01,0.000000,,2013-09-24 05:23:00,